Weather History for CXDK - January, 2013

Change the Weather History Date:

Monday, January 21, 2013

  Actual Average Record
Temperature  
Mean Temperature -8 °F -  
Max Temperature -2 °F - - ()
Min Temperature -13 °F - - ()
Degree Days  
Heating Degree Days 72    
Moisture  
Dew Point -10 °F    
Average Humidity 77    
Maximum Humidity 81    
Minimum Humidity 68    
Precipitation  
Precipitation 0.00 in - - ()
Sea Level Pressure  
Sea Level Pressure 30.45 in    
Wind  
Wind Speed 23 mph ()    
Max Wind Speed 39 mph    
Max Gust Speed -    
T = Trace of Precipitation, MM = Missing Value Source: Averaged Metar Reports

Daily Weather History Graph

Daily Weather History Graph

Search for Another Location

Airport or City:

Trip Planner

Search our weather history database for the weather conditions in past years. The results will help you decide how hot, cold, wet, or windy it might be!

Date:

Astronomy

Jan. 21, 2013 Rise Set
Actual Time 10:03 AM MST 4:56 PM MST
Civil Twilight 9:09 AM MST 5:49 PM MST
Nautical Twilight 8:14 AM MST 6:45 PM MST
Astronomical Twilight 7:23 AM MST 7:36 PM MST
Moon 12:31 PM MST (1/21) 5:43 AM MST (1/21)
Length of Visible Light 8h 40m
Length of Day
6h 52m
Waxing Gibbous, 75% of the Moon is Illuminated
Jan 21
Waxing Gibbous
Jan 26
Full
Feb 3
Last Quarter
Feb 10
New
Feb 17
First Quarter

Hourly Weather History & Observations

Time (MST) Temp. Windchill Dew Point Humidity Pressure Visibility Wind Dir Wind Speed Gust Speed Precip Events Conditions
12:00 AM -7.4 °F -35.5 °F -13.2 °F 76% 30.56 in - North 28.8 mph - N/A   Unknown
1:00 AM -7.4 °F -29.6 °F -13.0 °F 77% 30.54 in - North 16.1 mph - N/A   Unknown
2:00 AM -7.4 °F -36.7 °F -13.5 °F 75% 30.51 in - North 32.2 mph - N/A   Unknown
3:00 AM -7.2 °F -37.6 °F -12.6 °F 77% 30.49 in - North 35.7 mph - N/A   Unknown
4:00 AM -7.6 °F -37.7 °F -12.3 °F 80% 30.47 in - North 34.5 mph - N/A   Unknown
5:00 AM -8 °F - -12 °F 72% 30.45 in - Calm Calm - -  
5:00 AM -7.6 °F -37.7 °F -12.3 °F 80% 30.45 in - North 34.5 mph - N/A   Unknown
6:00 AM -7.8 °F -39.0 °F -12.3 °F 81% 30.42 in - North 38.0 mph - N/A   Unknown
7:00 AM -7.6 °F -38.8 °F -12.1 °F 81% 30.40 in - North 38.0 mph - N/A   Unknown
8:00 AM -7.1 °F -35.0 °F -11.7 °F 80% 30.39 in - North 28.8 mph - N/A   Unknown
9:00 AM -6.9 °F -23.7 °F -11.9 °F 79% 30.39 in - North 9.2 mph - N/A   Unknown
10:00 AM -6.5 °F -36.2 °F -11.4 °F 79% 30.40 in - North 34.5 mph - N/A   Unknown
11:00 AM -6 °F - -11 °F 68% 30.43 in - Calm Calm - -  
11:00 AM -5.8 °F -35.2 °F -11.0 °F 78% 30.43 in - North 34.5 mph - N/A   Unknown
12:00 PM -4.9 °F -32.1 °F -10.5 °F 77% 30.43 in - North 28.8 mph - N/A   Unknown
1:00 PM -4.2 °F -30.7 °F -10.5 °F 74% 30.44 in - North 27.6 mph - N/A   Unknown
2:00 PM -3.5 °F -18.4 °F -9.4 °F 76% 30.45 in - North 8.1 mph - N/A   Unknown
3:00 PM -3.1 °F -16.7 °F -9.0 °F 76% 30.44 in - North 6.9 mph - N/A   Unknown
4:00 PM -2.7 °F -32.3 °F -8.5 °F 76% 30.45 in - North 39.1 mph - N/A   Unknown
5:00 PM -3 °F - -8 °F 69% 30.46 in - Calm Calm - -  
5:00 PM -2.7 °F - -8.0 °F 78% 30.46 in - North 1.2 mph - N/A   Unknown
6:00 PM -2.7 °F -16.2 °F -8.0 °F 78% 30.45 in - North 6.9 mph - N/A   Unknown
7:00 PM -2.6 °F -26.2 °F -7.4 °F 80% 30.45 in - North 21.9 mph - N/A   Unknown
8:00 PM -2.4 °F -31.8 °F -7.4 °F 79% 30.47 in - North 39.1 mph - N/A   Unknown
9:00 PM -2.4 °F -19.2 °F -7.1 °F 80% 30.46 in - North 10.4 mph - N/A   Unknown
10:00 PM -2.2 °F -15.6 °F -6.7 °F 81% 30.47 in - North 6.9 mph - N/A   Unknown
11:00 PM -2 °F - -7 °F 71% 30.48 in - Calm Calm - -  
11:00 PM -2.0 °F -30.0 °F -6.7 °F 80% 30.48 in - North 34.5 mph - N/A   Unknown